Location: Mountain Grove
(34.0887°N, 86.6172°W)
Time: 20:52:13
(UTC+00:00)

SL-16 R/B - Pass Details

Date: 14 July 2020
Orbit: 839 x 850 km, 71.0° (Epoch: 08 August)

Event Time Altitude Azimuth Distance (km) Brightness Sun altitude
Exits shadow 02:09:55 18° 117° (ESE) 1,964 3.5 -13.2°
Maximum altitude 02:11:09 19° 100° (E) 1,900 3.5 -13.4°
Drops below altitude 10° 02:15:01 10° 56° (ENE) 2,470 4.5 -14.0°
Sets 02:18:08 0° 40° (NE) 3,412 5.4 -14.5°
